{"data":{"norad_id":57698,"intl_designator":"2023-129A","name":"STARLINK-30288","alt_names":[],"object_type":"PAYLOAD","status":"ACTIVE","operator":null,"country":"US","launch_date":"2023-08-27","launch_site_code":"AFETR","launch_vehicle":null,"mission":null,"orbit_class":"UNKNOWN","rcs_meters":null,"size_class":null,"mass_kg":null,"dimensions":null,"purposes":["comms"],"wikipedia_slug":null,"has_3d_model":false,"image_url":null,"decayed_at":null,"tle_current":{"epoch":"2026-05-25T02:19:47.145216Z","epoch_age_seconds":59876,"freshness":"FRESH","line1":"1 57698U 23129A   26145.09707344  .00001219  00000+0  53825-4 0  9993","line2":"2 57698  43.0071  46.7684 0001345 269.9533  90.1165 15.27565549152365","mean_motion":15.27565549,"eccentricity":0.0001345,"inclination_deg":43.0071,"raan_deg":46.7684,"arg_perigee_deg":269.9533,"mean_anomaly_deg":90.1165,"bstar":5.3825e-5,"rev_number":15236,"period_min":94.267640491282,"perigee_km":482.16953252352,"apogee_km":484.01520322348,"semimajor_km":6861.2293678735,"source":"CELESTRAK","updated_at":"2026-05-25T13:38:18.370839Z"}}}